Flag for Congo Weather past 2 weeks in Pointe-Noire, Congo

Now
75 °F

Overcast.


Feels Like: 75 °F
Forecast: 72 / 79 °F
Wind: 9 mph from South

Location: Pointe Airport-Noire

Current Time: Aug 28, 2014 at 5:07:55 PM

Latest Report: Aug 28, 2014 at 4:00 PM


Visibility: 5 mi

Pressure: 29.89 "Hg

Humidity: 83%

Dew point: 70 °F

Location of Pointe-NoireLocation

Historic Weather in Pointe-Noire — Graph

°F

Pointe-Noire temperature yesterday

Maximum temperature yesterday: 79 °F (at 11:00 AM)
Minimum temperature yesterday: 72 °F (at 6:00 AM)
Average temperature yesterday: 75 °F

Past Weeks' High & Low Weather Summary

 TemperatureHumidityPressure
High79 °F (Aug 13, 3:00 PM)100% (Aug 21, 5:00 AM)30.04 "Hg (Aug 21, 5:00 AM)
Low68 °F (Aug 19, 4:00 AM)61% (Aug 13, 3:00 PM)29.86 "Hg (Aug 23, 5:00 PM)
Average74 °F83%29.96 "Hg
* Reported Aug 13 3:00 PM — Aug 28 3:00 PM, Pointe-Noire, Weather by CustomWeather, © 2014

Note: Actual official high and low records may vary slightly from our data, if they occured in-between our weather recording intervals... More about our weather records

Advertising

Pointe-Noire weather history for previous 24 hours

 ConditionsComfort  
Time TempWeatherWind HumidityBarometerVisibility
3:00 PM
Aug 28
75 °FOvercast.9 mph78%29.89 "HgN/A
2:00 PM77 °FPartly sunny.7 mph74%29.92 "HgN/A
1:00 PM77 °FPartly sunny.12 mph74%29.92 "HgN/A
12:00 PM77 °FPartly sunny.9 mph74%29.98 "Hg5 mi
11:00 AM77 °FBroken clouds.9 mph74%29.98 "Hg5 mi
10:00 AM77 °FBroken clouds.9 mph74%30.01 "Hg5 mi
9:00 AM75 °FBroken clouds.9 mph78%30.01 "Hg4 mi
8:00 AM73 °FFog.5 mph89%29.98 "Hg2 mi
7:00 AM72 °FMore clouds than sun.5 mph88%29.98 "Hg4 mi
6:00 AM72 °FMostly cloudy.2 mph94%29.95 "Hg5 mi
5:00 AM72 °FMostly cloudy.5 mph94%29.95 "Hg5 mi
4:00 AM72 °FMostly cloudy.6 mph94%29.92 "Hg5 mi
3:00 AM72 °FMostly cloudy.5 mph94%29.95 "Hg5 mi
2:00 AM72 °FPartly cloudy.No wind94%29.95 "Hg4 mi
1:00 AM72 °FPassing clouds.2 mph94%29.95 "Hg4 mi
12:00 AM72 °FPassing clouds.5 mph88%29.98 "Hg4 mi
11:00 PM
Aug 27
73 °FPassing clouds.7 mph83%29.95 "Hg4 mi
10:00 PM73 °FMostly cloudy.7 mph83%29.98 "Hg5 mi
9:00 PM73 °FMostly cloudy.9 mph89%29.98 "Hg5 mi
8:00 PM73 °FPartly cloudy.7 mph89%29.95 "Hg5 mi
7:00 PM73 °FPartly cloudy.7 mph89%29.92 "Hg5 mi
6:00 PM75 °FPartly sunny.7 mph83%29.92 "Hg5 mi
5:00 PM75 °FPartly sunny.9 mph83%29.89 "HgN/A
Weather by CustomWeather, © 2014

See weather overviewHow to use our weather pages